{"data":{"norad_id":65391,"intl_designator":"2025-191N","name":"STARLINK-34786","alt_names":[],"object_type":"PAYLOAD","status":"ACTIVE","operator":null,"country":"US","launch_date":"2025-08-30","launch_site_code":"AFWTR","launch_vehicle":null,"mission":null,"orbit_class":"UNKNOWN","rcs_meters":null,"size_class":null,"mass_kg":null,"dimensions":null,"purposes":["comms"],"wikipedia_slug":null,"has_3d_model":false,"image_url":null,"decayed_at":null,"tle_current":{"epoch":"2026-09-20T13:00:10.110816Z","epoch_age_seconds":111321,"freshness":"FRESH","line1":"1 65391U 25191N   26263.54178369  .00011530  00000+0  35902-3 0  9995","line2":"2 65391  97.2850 129.5493 0001802  91.3090 268.8359 15.33436592 59649","mean_motion":15.33436592,"eccentricity":0.0001802,"inclination_deg":97.285,"raan_deg":129.5493,"arg_perigee_deg":91.309,"mean_anomaly_deg":268.8359,"bstar":0.00035902,"rev_number":5964,"period_min":93.906719554792,"perigee_km":464.33495520951,"apogee_km":466.8014265603,"semimajor_km":6843.7051908849,"source":"CELESTRAK","updated_at":"2026-09-21T09:00:35.599498Z"}}}